Time,TemperatureF,DewpointF,PressureIn,WindDirection,WindDirectionDegrees,WindSpeedMPH,WindSpeedGustMPH,Humidity,HourlyPrecipIn,Conditions,Clouds,dailyrainin,SoftwareType,DateUTC
2013-11-08 00:23:00,48.0,33.0,30.05,WNW,301,6.0,6.0,56,0.00,,,0.00,,2013-11-08 05:23:00,
2013-11-08 00:43:00,47.0,30.0,30.06,NW,307,6.0,6.0,51,0.00,,,0.00,,2013-11-08 05:43:00,
2013-11-08 00:54:00,46.0,29.0,30.06,NW,319,9.0,9.0,51,0.00,,,0.00,,2013-11-08 05:54:00,
2013-11-08 01:23:00,45.0,28.0,30.06,West,278,9.0,9.0,52,0.00,,,0.00,,2013-11-08 06:23:00,
2013-11-08 01:42:00,45.0,29.0,30.07,West,275,6.0,6.0,54,0.00,,,0.00,,2013-11-08 06:42:00,
2013-11-08 01:53:00,45.0,29.0,30.07,WNW,294,1.0,1.0,53,0.00,,,0.00,,2013-11-08 06:53:00,
2013-11-08 02:12:00,44.0,28.0,30.08,NNW,341,7.0,7.0,54,0.00,,,0.00,,2013-11-08 07:12:00,
2013-11-08 02:22:00,44.0,28.0,30.08,WNW,298,4.0,4.0,54,0.00,,,0.00,,2013-11-08 07:22:00,
2013-11-08 02:42:00,44.0,29.0,30.08,West,261,3.0,3.0,55,0.00,,,0.00,,2013-11-08 07:42:00,
2013-11-08 02:52:00,44.0,29.0,30.08,West,266,2.0,2.0,56,0.00,,,0.00,,2013-11-08 07:52:00,
2013-11-08 03:22:00,43.0,29.0,30.08,WNW,284,7.0,7.0,58,0.00,,,0.00,,2013-11-08 08:22:00,
2013-11-08 03:52:00,43.0,30.0,30.09,WNW,298,0.0,0.0,59,0.00,,,0.00,,2013-11-08 08:52:00,
2013-11-08 04:22:00,42.0,29.0,30.09,WNW,302,0.0,0.0,60,0.00,,,0.00,,2013-11-08 09:22:00,
2013-11-08 04:43:00,42.0,30.0,30.09,WNW,302,0.0,0.0,63,0.00,,,0.00,,2013-11-08 09:43:00,
2013-11-08 04:54:00,42.0,31.0,30.10,West,260,0.0,0.0,64,0.00,,,0.00,,2013-11-08 09:54:00,
2013-11-08 05:23:00,42.0,32.0,30.10,West,260,0.0,0.0,67,0.00,,,0.00,,2013-11-08 10:23:00,
2013-11-08 05:43:00,41.0,31.0,30.10,West,260,0.0,0.0,68,0.00,,,0.00,,2013-11-08 10:43:00,
2013-11-08 05:53:00,40.0,31.0,30.11,West,260,0.0,0.0,69,0.00,,,0.00,,2013-11-08 10:53:00,
2013-11-08 06:22:00,41.0,32.0,30.11,West,260,0.0,0.0,71,0.00,,,0.00,,2013-11-08 11:22:00,
2013-11-08 06:52:00,43.0,32.0,30.12,WSW,240,0.0,0.0,66,0.00,,,0.00,,2013-11-08 11:52:00,
2013-11-08 07:11:00,43.0,32.0,30.13,SW,234,3.0,3.0,66,0.00,,,0.00,,2013-11-08 12:11:00,
2013-11-08 07:21:00,43.0,33.0,30.14,West,271,5.0,5.0,68,0.00,,,0.00,,2013-11-08 12:21:00,
2013-11-08 07:42:00,43.0,33.0,30.14,SW,234,1.0,1.0,67,0.00,,,0.00,,2013-11-08 12:42:00,
2013-11-08 07:52:00,44.0,33.0,30.14,WSW,246,3.0,3.0,65,0.00,,,0.00,,2013-11-08 12:52:00,
2013-11-08 08:11:00,45.0,34.0,30.15,WSW,257,2.0,2.0,65,0.00,,,0.00,,2013-11-08 13:11:00,
2013-11-08 08:22:00,45.0,33.0,30.15,WSW,252,3.0,3.0,62,0.00,,,0.00,,2013-11-08 13:22:00,
2013-11-08 08:52:00,46.0,34.0,30.16,WSW,244,6.0,6.0,62,0.00,,,0.00,,2013-11-08 13:52:00,
2013-11-08 09:11:00,47.0,34.0,30.16,West,260,6.0,6.0,60,0.00,,,0.00,,2013-11-08 14:11:00,
2013-11-08 09:22:00,47.0,34.0,30.15,West,268,6.0,6.0,60,0.00,,,0.00,,2013-11-08 14:22:00,
2013-11-08 09:42:00,48.0,35.0,30.15,West,267,1.0,1.0,60,0.00,,,0.00,,2013-11-08 14:42:00,
2013-11-08 09:52:00,49.0,35.0,30.15,West,267,0.0,0.0,58,0.00,,,0.00,,2013-11-08 14:52:00,
2013-11-08 10:22:00,50.0,34.0,30.16,WSW,246,7.0,7.0,53,0.00,,,0.00,,2013-11-08 15:22:00,
2013-11-08 10:44:00,50.0,34.0,30.15,NW,314,4.0,4.0,55,0.00,,,0.00,,2013-11-08 15:44:00,
2013-11-08 10:53:00,52.0,35.0,30.16,NW,304,4.0,4.0,52,0.00,,,0.00,,2013-11-08 15:53:00,
2013-11-08 11:13:00,51.0,33.0,30.16,WNW,302,2.0,2.0,50,0.00,,,0.00,,2013-11-08 16:13:00,
2013-11-08 11:23:00,51.0,34.0,30.16,WNW,288,1.0,1.0,52,0.00,,,0.00,,2013-11-08 16:23:00,
2013-11-08 11:53:00,51.0,34.0,30.16,NW,313,5.0,5.0,52,0.00,,,0.00,,2013-11-08 16:53:00,
2013-11-08 12:22:00,52.0,33.0,30.15,WNW,300,6.0,6.0,49,0.00,,,0.00,,2013-11-08 17:22:00,
2013-11-08 12:43:00,51.0,31.0,30.15,NW,311,4.0,4.0,46,0.00,,,0.00,,2013-11-08 17:43:00,
2013-11-08 12:53:00,51.0,32.0,30.15,WNW,282,1.0,1.0,48,0.00,,,0.00,,2013-11-08 17:53:00,
2013-11-08 13:22:00,51.0,32.0,30.15,WNW,295,4.0,4.0,48,0.00,,,0.00,,2013-11-08 18:22:00,
2013-11-08 13:53:00,52.0,30.0,30.16,NE,53,7.0,7.0,42,0.00,,,0.00,,2013-11-08 18:53:00,
2013-11-08 14:22:00,52.0,32.0,30.17,WNW,303,4.0,4.0,47,0.00,,,0.00,,2013-11-08 19:22:00,
2013-11-08 14:42:00,52.0,31.0,30.17,WNW,284,7.0,7.0,45,0.00,,,0.00,,2013-11-08 19:42:00,
2013-11-08 14:53:00,52.0,31.0,30.17,NW,308,6.0,6.0,45,0.00,,,0.00,,2013-11-08 19:53:00,
2013-11-08 15:22:00,52.0,30.0,30.18,WNW,292,2.0,2.0,42,0.00,,,0.00,,2013-11-08 20:22:00,
2013-11-08 15:42:00,52.0,30.0,30.19,WSW,246,7.0,7.0,42,0.00,,,0.00,,2013-11-08 20:42:00,
2013-11-08 15:53:00,53.0,31.0,30.19,West,273,2.0,2.0,42,0.00,,,0.00,,2013-11-08 20:53:00,
2013-11-08 16:22:00,52.0,30.0,30.19,NW,319,4.0,4.0,42,0.00,,,0.00,,2013-11-08 21:22:00,
2013-11-08 16:44:00,51.0,29.0,30.20,NNW,332,1.0,1.0,43,0.00,,,0.00,,2013-11-08 21:44:00,
2013-11-08 16:54:00,50.0,28.0,30.20,West,279,4.0,4.0,43,0.00,,,0.00,,2013-11-08 21:54:00,
2013-11-08 17:13:00,49.0,29.0,30.21,WNW,286,4.0,4.0,45,0.00,,,0.00,,2013-11-08 22:13:00,
2013-11-08 17:24:00,48.0,29.0,30.22,West,272,5.0,5.0,47,0.00,,,0.00,,2013-11-08 22:24:00,
2013-11-08 17:43:00,47.0,29.0,30.22,WNW,290,1.0,1.0,49,0.00,,,0.00,,2013-11-08 22:43:00,
2013-11-08 17:53:00,47.0,29.0,30.22,West,265,0.0,0.0,49,0.00,,,0.00,,2013-11-08 22:53:00,
2013-11-08 18:12:00,46.0,28.0,30.23,WNW,300,2.0,2.0,50,0.00,,,0.00,,2013-11-08 23:12:00,
2013-11-08 18:22:00,46.0,29.0,30.24,WNW,298,2.0,2.0,51,0.00,,,0.00,,2013-11-08 23:22:00,
2013-11-08 18:53:00,46.0,29.0,30.25,West,281,4.0,4.0,52,0.00,,,0.00,,2013-11-08 23:53:00,
2013-11-08 19:12:00,46.0,29.0,30.25,West,273,2.0,2.0,51,0.00,,,0.00,,2013-11-09 00:12:00,
2013-11-08 19:22:00,46.0,30.0,30.26,West,266,0.0,0.0,53,0.00,,,0.00,,2013-11-09 00:22:00,
2013-11-08 19:52:00,45.0,29.0,30.26,West,278,1.0,1.0,54,0.00,,,0.00,,2013-11-09 00:52:00,
2013-11-08 20:11:00,45.0,29.0,30.27,WNW,287,4.0,4.0,53,0.00,,,0.00,,2013-11-09 01:11:00,
2013-11-08 20:22:00,45.0,29.0,30.27,West,274,0.0,0.0,54,0.00,,,0.00,,2013-11-09 01:22:00,
2013-11-08 20:42:00,45.0,30.0,30.27,WNW,286,0.0,0.0,55,0.00,,,0.00,,2013-11-09 01:42:00,
2013-11-08 20:52:00,45.0,30.0,30.28,West,263,1.0,1.0,55,0.00,,,0.00,,2013-11-09 01:52:00,
2013-11-08 21:22:00,45.0,30.0,30.29,West,279,4.0,4.0,56,0.00,,,0.00,,2013-11-09 02:22:00,
2013-11-08 21:42:00,45.0,30.0,30.29,West,277,2.0,2.0,56,0.00,,,0.00,,2013-11-09 02:42:00,
2013-11-08 21:52:00,44.0,30.0,30.29,West,267,0.0,0.0,57,0.00,,,0.00,,2013-11-09 02:52:00,
2013-11-08 22:22:00,44.0,30.0,30.29,West,273,0.0,0.0,57,0.00,,,0.00,,2013-11-09 03:22:00,
2013-11-08 22:54:00,44.0,29.0,30.30,NW,318,4.0,4.0,56,0.00,,,0.00,,2013-11-09 03:54:00,
2013-11-08 23:23:00,43.0,30.0,30.30,North,5,0.0,0.0,59,0.00,,,0.00,,2013-11-09 04:23:00,
2013-11-08 23:42:00,43.0,30.0,30.30,NW,308,0.0,0.0,60,0.00,,,0.00,,2013-11-09 04:42:00,
2013-11-08 23:53:00,42.0,30.0,30.30,NW,304,0.0,0.0,61,0.00,,,0.00,,2013-11-09 04:53:00,